Regional Weather Roundup
Issued by NWS Newport/Morehead, NC

Current Version | Previous Version | Graphics & Text | Print | Product List | Glossary Off
Versions: 1 2 3 4 5 6 7 8 9 10 11 12 13 14 15 16 17 18 19 20 21 22 23 24 25 26 27 28 29 30 31 32 33 34 35 36 37 38 39 40 41 42 43 44 45 46 47 48 49 50

000
ASUS42 KMHX 031713
RWRMHX
WEATHER ROUNDUP FOR EASTERN NORTH CAROLINA
NATIONAL WEATHER SERVICE NEWPORT/MOREHEAD CITY NC
100 PM EDT FRI JUL 03 2015

NOTE: "FAIR" INDICATES FEW OR NO CLOUDS BELOW 12,000 FEET
WITH NO SIGNIFICANT WEATHER AND/OR OBSTRUCTIONS TO VISIBILITY

NCZ015>017-031-032-045>047-102-103-031800-
NORTH COAST

CITY           SKY/WX    TMP DP  RH WIND       PRES   REMARKS
EDENTON          N/A     81  70  70 SE8       29.98S
ELIZABETH CITY PTSUNNY   79  69  71 E6        29.98F
KITTY HAWK     MOSUNNY   82  71  68 NE5       29.98F
MANTEO         CLOUDY    77  71  80 E7        29.99S

$$

NCZ045>047-081-094-103-104-031800-
CENTRAL COAST

CITY           SKY/WX    TMP DP  RH WIND       PRES   REMARKS
FRISCO         MOSUNNY   80  70  71 SW10      30.00S
SWANQUARTER      N/A     86 N/A N/A S1G7      29.94S

$$

NCZ095-097-098-100-101-031800-
SOUTHERN COAST

CITY           SKY/WX    TMP DP  RH WIND       PRES   REMARKS
BEAUFORT       CLOUDY    81  73  76 SW13      29.99S
CEDAR ISLAND     N/A     82 N/A N/A N3        30.03S
JACKSONVILLE   PTSUNNY   83  71  67 SW6       29.96F
PINEY ISLAND   MOSUNNY  N/A N/A N/A SW8       29.98F
WILMINGTON     CLOUDY    81  72  74 W7        29.99F


$$

NCZ011>013-027>030-043-044-078>080-089-090>093-098-031800-
COASTAL PLAIN

CITY           SKY/WX    TMP DP  RH WIND       PRES   REMARKS
AHOSKIE        MOSUNNY   80  70  70 S5        29.97F
CLINTON        CLOUDY    76  72  87 S6        29.99F
ELIZABETHTOWN  CLOUDY    76  73  91 CALM      29.99F
GOLDSBORO      CLOUDY    79  71  75 VRB7      29.96F
GREENVILLE     PTSUNNY   82  72  69 S8        29.98F
HAVELOCK       PTSUNNY   82  70  66 SW8       29.99S
KENANSVILLE    CLOUDY    78  69  75 S3        29.99F
KINSTON        PTSUNNY   81  70  69 SW5       29.98F
NEW BERN       PTSUNNY   84  71  65 SW10      29.99S
RICHLANDS      CLOUDY    84  70  61 W10       29.98F
ROCKY MOUNT    MOSUNNY   83  70  64 SE6       29.96F
WASHINGTON     SUNNY     81  71  69 CALM      29.97F
WHITEVILLE     CLOUDY    78  73  83 SW3       29.98F

$$

AMZ130-135-150-152-154-156-158-170-250-252-270-ANZ085-086-088-633-658-670-031800-
MARINE OBSERVATIONS

STATION/POSITION TIME  TEMP    WIND        PRES    WAVE   SWELL
                       AIR SEA DIR/SP/G            HT/PER HT/PER
                 (UTC) (F)     (DEG/KT/KT) (MB)    (FT/S) (FT/S)
CHESAPEAKE LIGHT 1700   74      80/  5/  6 1016.2
64 E VA BEACH    1650   75 77   50/  4/  6 1015.3    5/ 6   5/ 6
DUCK             1600   75 73   10/  4/  5 1014.8
2 E DUCK         1611      76                N/A     3/ 4
OREGON INLET     1600   76 78   30/  5/  7 1015.4
13E OREGON INLT  1700      74                N/A     4/ 7
HATTERAS CG      1600   79 78  230/  6/ 10 1015.4
DIAMOND BUOY     1650   77 82  260/ 14/ 16 1015.7    5/ 8   3/ 8
CAPE LOOKOUT     1700   79     210/ 11/ 14 1015.1
BEAUFORT LAB     1600   79 80  210/  6/  9 1014.9
30 SE NEW RVR IN 1608   78 80  230/ 14/ 17 1017.3
27 SE WRIGHTSVLE 1600      80  240/ 14/ 16   N/A
5 SE WRIGHTSVLE  1608   78 79  200/  8/ 12 1015.9
225 S CAPE HAT   1650   78 80  260/ 14/ 16 1019.8    7/ 7   5/ 7
41 SE CHARLESTON 1650   81 81  230/ 17/ 19 1016.5    4/ 5   2/ 9

$$



USA.gov is the U.S. government's official web portal to all federal, state and local government web resources and services.